[[{"header":{"parameterUnit":"m.s-1","parameterCategory":1,"la1":30.2991,"la2":30.254,"lo1":-89.0895,"lo2":-89.0444,"dy":0.0017,"dx":0.0017,"nx":28,"ny":28,"refTime":"2025-08-28T21:00:00:Z","depth":0,"parameterNumber":2,"parameterNumberName":"U-component_of_WINDS"},"data":[0,0,0,0,0,0,0,0,0,0,0,0,0,0,0,0,0,0,0,0,0,0,0,0,0,0,0,0,0,0,0,0,0,0,0,0,0,0,0,0,0,0,0,0,0,0,0,0,0,0,0,0,0,0,0,0,0,0,0.1432,0.1433,0,0.1538,0.1539,0.154,0.1605,0.1606,0.1606,0.1606,0.1716,0.1718,0.1721,0,0,0,0,0,0,0,0,0,0,0,0,0,0.1288,0.129,0.1432,0.1433,0.1435,0.1537,0.1539,0.154,0.1605,0.1606,0.1606,0.1606,0.1715,0.1718,0.1721,0,0,0,0,0,0,0,0,0,0,0,0,0,0.1368,0.1291,0.1432,0.1479,0.1485,0.1537,0.1539,0.1541,0.1605,0.1606,0.1606,0.1607,0.1714,0.1718,0.1722,0.1735,0,0,0.1734,0.1735,0,0,0,0,0,0,0,0,0.1363,0.1373,0.1471,0.1476,0.1482,0.1559,0.1528,0.1606,0.1605,0.1559,0.1606,0.1607,0.1663,0.1671,0.169,0.1741,0.1745,0.1734,0.1736,0.1738,0.1739,0,0,0,0,0,0,0,0.1357,0.1369,0.1474,0.1472,0.1479,0.1496,0.1508,0.1543,0.1607,0.1563,0.1568,0.158,0.1666,0.1686,0.1693,0.1747,0.1734,0.1737,0.174,0.1741,0.1815,0.1814,0,0,0,0,0,0,0.1344,0.1364,0.147,0.1477,0.1423,0.1498,0.1511,0.1534,0.1607,0.1619,0.1579,0.1583,0.1679,0.1689,0.1697,0.1718,0.1738,0.1742,0.1744,0.1815,0.1815,0.1814,0,0,0,0,0,0,0.1341,0.1353,0.1466,0.1422,0.1437,0.15,0.1525,0.1535,0.1555,0.1619,0.1631,0.1588,0.168,0.1692,0.1725,0.1723,0.1743,0.1747,0.1816,0.1815,0.1814,0.176,0,0,0,0,0,0,0.1336,0.1351,0.1357,0.1421,0.1439,0.1492,0.1524,0.1537,0.1562,0.1567,0.163,0.1641,0.1681,0.1719,0.1729,0.1729,0.175,0.1816,0.1815,0.1815,0.1762,0.1758,0.1754,0,0,0,0,0,0.1331,0.1338,0.1357,0.1369,0.1447,0.1492,0.1502,0.1548,0.1561,0.1567,0.1609,0.1639,0.1722,0.1722,0.1734,0.1735,0.1816,0.1815,0.1815,0.1764,0.1759,0.1754,0,0,0,0,0,0,0.1271,0.1347,0.1369,0.1397,0.1437,0.1502,0.1512,0.154,0.1578,0.1582,0.1638,0.1651,0.1679,0.1711,0.171,0.1752,0.1773,0.1774,0.173,0.1726,0.1721,0.1713,0.1753,0,0,0,0,0,0.1261,0.129,0.1355,0.1373,0.1392,0.1448,0.1469,0.1501,0.1546,0.1563,0.1607,0.1649,0.1685,0.1707,0.1744,0.1768,0.1782,0.1774,0.177,0.1766,0.1766,0.1781,0.1778,0.1811,0.1811,0.1811,0,0,0.1241,0.1286,0.1301,0.1362,0.1398,0.1427,0.1462,0.1492,0.1514,0.1568,0.1602,0.1636,0.1687,0.1715,0.1731,0.1742,0.1761,0.1765,0.1761,0.1764,0.178,0.1777,0.1774,0.1811,0.1811,0.1811,0,0,0.1219,0.1256,0.1275,0.1309,0.1362,0.14,0.1404,0.1465,0.1489,0.1525,0.1566,0.1594,0.1654,0.1689,0.1714,0.1706,0.1735,0.1716,0.1693,0.1707,0.1705,0.1703,0.1699,0.1698,0.1716,0.1716,0.1716,0,0.1187,0.1232,0.1281,0.1308,0.1334,0.1384,0.1404,0.1435,0.1497,0.1514,0.1527,0.1604,0.1642,0.1679,0.1677,0.1696,0.1704,0.1709,0.1701,0.17,0.1698,0.1696,0.1695,0.1714,0.1714,0.1714,0.1714,0,0.119,0.1221,0.123,0.1288,0.1315,0.1339,0.1392,0.1414,0.1443,0.1479,0.1515,0.1562,0.1609,0.1621,0.165,0.1663,0.1669,0.169,0.1712,0.1692,0.169,0.169,0.171,0.1711,0.1712,0.1712,0,0,0.1131,0.1217,0.122,0.1247,0.1309,0.1334,0.136,0.1406,0.1423,0.1465,0.1488,0.1538,0.1559,0.1588,0.1622,0.1634,0.1624,0.1655,0.1657,0.1647,0.1641,0.1623,0.1621,0.1645,0.1645,0.1645,0.1637,0,0.1118,0.1166,0.1212,0.1244,0.1273,0.1322,0.1345,0.1385,0.142,0.145,0.1489,0.1524,0.1549,0.1566,0.1581,0.1622,0.1624,0.1624,0.1667,0.1668,0.1651,0.1621,0.1602,0.1592,0.1636,0.1636,0.1636,0,0.1108,0.1147,0.1182,0.1242,0.1256,0.1275,0.1321,0.1349,0.1397,0.1422,0.1454,0.149,0.152,0.1539,0.1582,0.1581,0.1602,0.1625,0.1625,0.163,0.165,0.1624,0.159,0.1588,0.1636,0.1636,0.1636,0,0.1061,0.1123,0.1152,0.1173,0.1244,0.1257,0.1287,0.1335,0.136,0.14,0.1417,0.146,0.1483,0.1516,0.1563,0.1573,0.1601,0.1624,0.1622,0.1621,0.1625,0.1624,0.1593,0.164,0.164,0.164,0.164,0,0.104,0.106,0.1131,0.1149,0.1172,0.1225,0.1247,0.1281,0.1324,0.135,0.1395,0.1418,0.1479,0.151,0.1547,0.1577,0.1587,0.1608,0.1617,0.1603,0.16,0.1617,0.1618,0.1639,0.1639,0.1639,0.1639,0,0.0991,0.104,0.1075,0.1139,0.1156,0.117,0.1226,0.1245,0.1283,0.1315,0.1325,0.1384,0.1423,0.1473,0.1528,0.1553,0.1578,0.1593,0.1561,0.1566,0.1561,0.1561,0.1539,0.1539,0.1586,0.1585,0.1585,0,0.0974,0.099,0.1057,0.1077,0.1105,0.1138,0.1163,0.1216,0.1241,0.1297,0.1309,0.1351,0.1387,0.1447,0.1495,0.1537,0.1553,0.1542,0.156,0.1545,0.1552,0.155,0.1552,0.1538,0.1537,0.1536,0.1536,0,0.0939,0.0962,0.0997,0.104,0.1069,0.1106,0.1145,0.1159,0.122,0.1246,0.1285,0.1313,0.1369,0.141,0.1458,0.149,0.1523,0.153,0.1532,0.1517,0.1498,0.1507,0.1548,0.153,0.1531,0.1531,0.1531,0.1532,0.0905,0.0921,0.097,0.1008,0.1043,0.1078,0.1099,0.114,0.1174,0.1223,0.1252,0.1291,0.1339,0.1408,0.1438,0.147,0.1482,0.1485,0.1485,0.1485,0.148,0.1493,0.1479,0.1479,0.1479,0.1479,0.148,0,0.0871,0.0905,0.0939,0.0992,0.1021,0.105,0.1095,0.1117,0.1151,0.1193,0.1228,0.1273,0.1314,0.1365,0.1409,0.1424,0.1441,0.1434,0.1433,0.144,0.1466,0.146,0.142,0.142,0.142,0.142,0.142,0.142,0.0856,0.0886,0.0915,0.0963,0.0998,0.1035,0.1058,0.1091,0.1125,0.1174,0.1208,0.1241,0.1288,0.1336,0.1374,0.1388,0.1402,0.1391,0.1409,0.1433,0.1438,0.1443,0.1437,0.1393,0.1393,0.138,0.138,0.138]},{"header":{"parameterUnit":"m.s-1","parameterCategory":1,"la1":30.2991,"la2":30.254,"lo1":-89.0895,"lo2":-89.0444,"dy":0.0017,"dx":0.0017,"nx":28,"ny":28,"refTime":"2025-08-28T21:00:00:Z","depth":0,"parameterNumber":3,"parameterNumberName":"V-component_of_WINDS"},"data":[0,0,0,0,0,0,0,0,0,0,0,0,0,0,0,0,0,0,0,0,0,0,0,0,0,0,0,0,0,0,0,0,0,0,0,0,0,0,0,0,0,0,0,0,0,0,0,0,0,0,0,0,0,0,0,0,0,0,1.9118,1.9116,0,1.8977,1.8975,1.8974,1.8895,1.8895,1.8895,1.8895,1.8745,1.8741,1.8737,0,0,0,0,0,0,0,0,0,0,0,0,0,1.9312,1.9309,1.9118,1.9116,1.9115,1.8977,1.8975,1.8973,1.8895,1.8895,1.8895,1.8894,1.8746,1.8742,1.8737,0,0,0,0,0,0,0,0,0,0,0,0,0,1.9205,1.9308,1.9118,1.9059,1.9052,1.8978,1.8975,1.8973,1.8895,1.8895,1.8895,1.8894,1.8748,1.8742,1.8736,1.8708,0,0,1.8719,1.8717,0,0,0,0,0,0,0,0,1.9211,1.9198,1.907,1.9063,1.9055,1.8953,1.8989,1.8884,1.8895,1.8955,1.8895,1.8894,1.8814,1.8803,1.8777,1.8701,1.8695,1.8719,1.8715,1.8713,1.8711,0,0,0,0,0,0,0,1.9219,1.9203,1.9062,1.9068,1.9059,1.9037,1.9022,1.8968,1.8888,1.895,1.8944,1.8928,1.881,1.8783,1.8773,1.8693,1.8719,1.8714,1.871,1.8708,1.8581,1.8581,0,0,0,0,0,0,1.9236,1.921,1.9067,1.9058,1.9134,1.9034,1.9016,1.8986,1.8888,1.8873,1.8929,1.8925,1.8793,1.878,1.8767,1.8725,1.8713,1.8708,1.8704,1.8581,1.8581,1.8581,0,0,0,0,0,0,1.9241,1.9224,1.9072,1.9132,1.9111,1.9031,1.8998,1.8984,1.8956,1.8873,1.8857,1.8916,1.8792,1.8775,1.8723,1.8719,1.8705,1.87,1.8581,1.8581,1.8581,1.8642,0,0,0,0,0,0,1.9247,1.9227,1.9217,1.9133,1.9108,1.9033,1.8998,1.8981,1.8948,1.8942,1.8857,1.8842,1.879,1.8732,1.8717,1.8711,1.8695,1.8581,1.8581,1.8581,1.864,1.8644,1.8648,0,0,0,0,0,1.9254,1.9239,1.9217,1.92,1.9095,1.9033,1.9018,1.8961,1.8948,1.8936,1.8881,1.8845,1.8722,1.8727,1.871,1.8702,1.8581,1.8581,1.8581,1.8638,1.8643,1.8648,0,0,0,0,0,0,1.9324,1.9227,1.9201,1.916,1.9105,1.902,1.9003,1.8969,1.8915,1.8912,1.884,1.8822,1.8775,1.8733,1.8741,1.8667,1.8647,1.8644,1.8696,1.8701,1.8704,1.8715,1.8691,0,0,0,0,0,1.9335,1.9295,1.9211,1.9182,1.9156,1.9085,1.9055,1.9015,1.8955,1.8931,1.8873,1.8814,1.8762,1.8729,1.8676,1.8634,1.8612,1.8619,1.8623,1.8627,1.8624,1.8595,1.8596,1.8582,1.8582,1.8582,0,0,1.9356,1.9299,1.9277,1.9195,1.9148,1.9104,1.9066,1.9023,1.8989,1.8924,1.8871,1.8826,1.8755,1.8707,1.8682,1.867,1.8623,1.8627,1.863,1.8626,1.8595,1.8596,1.8598,1.8582,1.8582,1.8582,0,0,1.9373,1.9327,1.9296,1.925,1.9179,1.9131,1.9124,1.9043,1.9011,1.8956,1.8906,1.8863,1.8776,1.8727,1.869,1.8685,1.8648,1.867,1.8689,1.8662,1.8663,1.8663,1.8659,1.8659,1.8668,1.8668,1.8668,0,1.9408,1.9344,1.9284,1.9243,1.9207,1.9147,1.9113,1.907,1.8986,1.8961,1.8949,1.8835,1.8784,1.8721,1.872,1.8693,1.868,1.8679,1.8668,1.8668,1.8667,1.8662,1.8661,1.8671,1.867,1.867,1.867,0,1.9389,1.9344,1.9327,1.9248,1.921,1.9173,1.9105,1.9073,1.9035,1.8988,1.8931,1.8867,1.8798,1.8781,1.8744,1.8712,1.8706,1.8682,1.866,1.8673,1.8667,1.8664,1.8675,1.8674,1.8673,1.8672,0,0,1.9446,1.9334,1.9328,1.929,1.9207,1.917,1.9128,1.9063,1.9036,1.8978,1.894,1.8866,1.8842,1.88,1.8757,1.8733,1.8729,1.8711,1.8708,1.8715,1.8686,1.8704,1.8703,1.8705,1.8704,1.8704,1.8691,0,1.9449,1.9375,1.9318,1.9264,1.922,1.9161,1.9124,1.9068,1.9021,1.8975,1.8923,1.8871,1.8845,1.8819,1.8793,1.8736,1.8722,1.8736,1.8665,1.8663,1.8684,1.87,1.8719,1.8711,1.8689,1.8688,1.8688,0,1.9443,1.9389,1.9331,1.9249,1.9229,1.9197,1.9131,1.9089,1.9022,1.8989,1.8942,1.8897,1.8847,1.8831,1.8759,1.877,1.8737,1.8704,1.8702,1.8692,1.8676,1.8689,1.8707,1.8706,1.8684,1.8684,1.8685,0,1.9488,1.9401,1.9353,1.9323,1.9228,1.9206,1.9165,1.9098,1.9061,1.9003,1.8977,1.8913,1.8878,1.8828,1.8765,1.876,1.8699,1.8678,1.8668,1.8669,1.8657,1.8659,1.8669,1.8639,1.8639,1.8639,1.8639,0,1.9497,1.9462,1.9372,1.9343,1.9301,1.9236,1.9196,1.9149,1.909,1.9048,1.8993,1.8954,1.8875,1.8826,1.8776,1.8723,1.8707,1.8677,1.8664,1.8682,1.8685,1.8659,1.8657,1.8639,1.8639,1.8639,1.8639,0,1.954,1.9478,1.9422,1.9337,1.9314,1.9287,1.9212,1.918,1.913,1.9078,1.9062,1.8983,1.8922,1.8855,1.8771,1.8737,1.8686,1.8668,1.8709,1.8702,1.8695,1.8696,1.8687,1.8682,1.8658,1.8658,1.8658,0,1.9548,1.9521,1.9432,1.9401,1.9362,1.9313,1.9275,1.9208,1.917,1.9091,1.9067,1.9002,1.8947,1.8852,1.8785,1.872,1.8699,1.87,1.8689,1.8706,1.8696,1.8698,1.8694,1.8704,1.8704,1.8705,1.8705,0,1.9569,1.954,1.9489,1.9426,1.9383,1.933,1.9275,1.9252,1.9173,1.9133,1.9071,1.9029,1.8943,1.8878,1.8805,1.8759,1.8718,1.871,1.8703,1.872,1.8744,1.8729,1.8717,1.871,1.871,1.8709,1.8709,1.8709,1.9594,1.9565,1.9498,1.9442,1.9394,1.9343,1.9308,1.9253,1.9201,1.9128,1.909,1.9028,1.8958,1.8855,1.881,1.8758,1.8745,1.8737,1.8735,1.8733,1.8737,1.8754,1.8745,1.8744,1.8744,1.8744,1.8744,0,1.961,1.9563,1.9513,1.9437,1.9393,1.936,1.9296,1.926,1.9207,1.9146,1.9093,1.902,1.8956,1.8884,1.8815,1.8787,1.8766,1.8771,1.8772,1.8761,1.8753,1.8765,1.8789,1.8789,1.8789,1.8789,1.8789,1.8789,1.9613,1.9562,1.9525,1.9448,1.9401,1.9341,1.9307,1.9259,1.921,1.9131,1.9079,1.9033,1.8966,1.8892,1.8831,1.8811,1.8787,1.8797,1.8772,1.8766,1.8762,1.8758,1.8769,1.8793,1.8793,1.8783,1.8783,1.8783]}]]